Location: Étouvelles
(49.5207°N, 3.5808°E)
Time: 17:51:54
(UTC+00:00)

Cosmos 2278 - Visible Passes

Search period start: 01 October 2023 00:00
Search period end: 11 October 2023 00:00
Orbit: 838 x 853 km, 71.1° (Epoch: 30 September)

Date Brightness Start Highest point End Pass type
(mag) Time Alt. Az. Time Alt. Az. Time Alt. Az.
01 Oct 6.2 00:34:36 10° NNW 00:35:36 15° NNW 00:35:36 15° NNW visible
01 Oct 6.3 19:03:50 10° NW 19:06:24 13° NNW 19:09:00 10° N visible
01 Oct 6.3 22:37:37 10° N 22:39:43 14° NNE 22:39:43 14° NNE visible
02 Oct 6.3 00:20:45 10° NNW 00:21:34 14° NNW 00:21:34 14° NNW visible
02 Oct 6.3 18:49:51 10° NW 18:52:31 13° NNW 18:55:10 10° N visible
02 Oct 6.3 22:23:48 10° N 22:25:45 13° NNE 22:25:45 13° NNE visible
03 Oct 6.3 00:06:53 10° NNW 00:07:36 14° NNW 00:07:36 14° NNW visible
03 Oct 6.3 18:35:53 10° WNW 18:38:36 13° NNW 18:41:21 10° N visible
03 Oct 6.3 22:09:58 10° N 22:11:49 13° NNE 22:11:49 13° NNE visible
03 Oct 6.4 23:53:02 10° NNW 23:53:40 13° NNW 23:53:40 13° NNW visible
04 Oct 6.2 18:21:54 10° WNW 18:24:42 14° NNW 18:27:30 10° N visible
04 Oct 6.3 21:56:07 10° N 21:57:56 13° NNE 21:57:56 13° NNE visible
04 Oct 6.4 23:39:11 10° NNW 23:39:48 13° NNW 23:39:48 13° NNW visible
05 Oct 6.2 18:07:56 10° WNW 18:10:48 14° NNW 18:13:40 10° N visible
05 Oct 6.2 21:42:17 10° N 21:44:04 13° NNE 21:44:04 13° NNE visible
05 Oct 6.4 23:25:19 10° NNW 23:25:56 13° NNW 23:25:56 13° NNW visible
06 Oct 6.2 17:53:57 10° WNW 17:56:53 14° NNW 17:59:50 10° N visible
06 Oct 6.2 21:28:27 10° N 21:30:14 13° NNE 21:30:14 13° NNE visible
06 Oct 6.4 23:11:27 10° NNW 23:12:06 13° NNW 23:12:06 13° NNW visible
07 Oct 6.1 17:39:58 10° WNW 17:42:59 14° NNW 17:45:59 10° N visible
07 Oct 6.2 21:14:37 10° N 21:16:26 13° NNE 21:16:26 13° NNE visible
07 Oct 6.4 22:57:36 10° NNW 22:58:18 13° NNW 22:58:18 13° NNW visible
08 Oct 6.1 21:00:47 10° N 21:02:38 12° NNE 21:02:38 12° NNE visible
08 Oct 6.4 22:43:44 10° NNW 22:44:31 14° NNW 22:44:31 14° NNW visible
09 Oct 6.1 20:46:57 10° N 20:48:52 12° NNE 20:48:52 12° NNE visible
09 Oct 6.4 22:29:52 10° NNW 22:30:44 14° NNW 22:30:44 14° NNW visible
10 Oct 6.1 20:33:07 10° N 20:35:06 12° NNE 20:35:06 12° NNE visible
10 Oct 6.3 22:16:01 10° NNW 22:16:58 15° NNW 22:16:58 15° NNW visible
